Location: Newark
(7.0858°N, 171.3717°E)
Time: 17:28:05
(UTC+00:00)

Altair - Pass Details

Date: 30 November 2020
Orbit: 1501 x 1682 km, 47.2° (Epoch: 20 January)

Event Time Altitude Azimuth Distance (km) Brightness Sun altitude
Exits shadow 16:31:09 34° 344° (NNW) 2,306 8.1 -28.6°
Maximum altitude 16:35:28 61° 49° (NE) 1,727 7.8 -27.6°
Drops below altitude 10° 16:44:53 10° 128° (SE) 3,800 10.5 -25.5°
Sets 16:48:05 0° 131° (SE) 4,811 11.3 -24.7°
